Wind_Speed
26 27 26 23 21 20 20 20 19 20 22 22 23 22 22 21 11 5 8 15 17 20 23 27 27 21 14 13 17 19 18 20 23 25 26 28 28 26 24 22 20 20 20 19 20 22 24 25 24 21 20 23 25 26 26 27 29 26 24 24 23 21 20 19 21 23 21 19 22 24 25 24 21 22 22 21 19 15 15 14 13 13 13 13 12 13
28 26 23 20 20 21 22 23 22 22 22 22 25 26 26 23 13 10 8 14 18 22 24 28 28 24 20 14 15 19 20 22 23 23 26 29 31 30 27 24 22 22 22 22 21 21 23 26 26 23 22 24 26 29 28 27 28 25 24 24 22 21 20 19 19 19 19 20 23 24 25 25 21 21 21 21 19 16 15 14 14 14 13 13 13 12
26 22 20 20 22 24 24 24 24 22 21 23 26 28 27 23 21 17 11 14 24 25 24 29 31 30 26 20 18 19 21 24 24 21 23 28 31 32 33 29 26 23 23 24 24 23 24 26 28 27 26 26 27 30 29 27 27 25 25 24 22 21 20 20 18 16 18 20 22 23 22 21 20 20 21 21 20 19 16 15 15 15 13 13 13 11
22 21 22 24 26 26 25 24 23 22 24 26 27 29 26 22 26 24 19 21 25 22 23 28 32 33 29 22 17 15 17 21 20 17 18 24 30 33 36 34 30 26 23 25 25 24 25 26 28 29 28 27 28 30 29 26 24 22 22 22 21 21 20 20 18 16 18 19 20 22 22 20 18 20 22 20 20 19 16 16 16 15 13 14 13 12
21 23 25 27 27 27 26 26 26 27 28 28 29 29 22 20 28 30 26 25 24 21 24 27 30 34 31 24 17 15 15 14 13 13 12 15 22 30 35 34 32 29 25 24 26 25 25 26 27 26 25 25 25 27 28 27 23 21 20 19 19 20 20 20 18 16 16 17 18 20 22 20 17 20 22 20 19 18 16 17 16 15 13 13 13 11
23 25 27 27 27 27 28 27 29 31 29 27 28 25 17 17 24 29 29 28 27 28 28 30 32 33 30 23 14 12 14 12 12 13 11 9 16 24 30 35 34 31 28 25 27 27 25 25 25 23 23 22 21 25 27 25 22 21 21 19 18 20 21 20 18 15 14 15 17 18 21 21 20 21 21 19 19 19 18 17 16 14 13 13 13 12
24 26 28 29 28 29 30 30 32 32 26 22 23 21 18 19 22 26 29 29 30 29 28 29 29 30 30 23 14 12 14 15 17 19 17 15 18 23 29 35 35 32 30 28 27 27 24 24 24 24 24 22 20 24 25 22 20 21 22 21 19 20 22 21 19 18 15 13 15 18 21 22 21 21 20 19 20 20 18 16 15 15 15 15 14 14
24 26 28 29 30 30 31 31 29 26 22 20 20 18 18 20 22 24 25 25 26 28 29 29 28 32 33 23 15 14 14 17 21 21 20 20 22 24 28 32 31 30 30 27 24 22 21 22 21 21 24 23 21 22 22 20 20 21 21 21 19 20 23 23 22 21 19 15 13 17 22 21 19 20 21 21 21 19 17 16 15 16 17 17 15 14
23 25 26 28 30 31 29 25 20 20 21 18 16 18 19 21 21 21 24 26 28 31 32 30 32 36 34 25 17 13 14 19 21 20 18 18 20 22 26 29 28 27 27 24 22 23 22 20 19 17 18 19 20 21 20 20 21 21 21 19 19 22 24 24 25 24 22 18 14 16 21 19 17 20 21 22 21 20 18 18 16 17 19 17 15 13
22 22 25 29 31 30 26 20 18 21 20 15 16 20 22 22 21 21 25 26 26 28 27 24 29 34 33 28 21 17 18 20 20 23 19 16 18 23 26 28 28 27 27 26 27 28 25 22 22 20 16 14 16 19 20 21 22 24 26 24 21 24 25 24 25 24 22 20 17 16 18 19 17 17 18 19 21 20 19 18 17 18 18 16 14 12
23 22 24 29 29 28 25 21 20 21 18 17 20 22 22 22 23 23 20 18 20 23 20 17 20 26 28 26 20 20 23 21 20 23 23 20 22 26 29 30 31 29 28 29 29 30 30 28 26 22 19 19 19 19 21 23 26 29 32 28 23 24 25 24 24 23 21 21 19 17 17 19 17 16 15 17 18 19 18 17 15 16 17 16 13 12
23 26 27 26 26 25 22 19 19 20 20 21 22 23 23 24 26 24 16 16 21 21 16 14 15 18 21 23 21 22 23 23 22 23 24 26 27 29 32 33 35 34 32 32 32 33 34 32 28 24 23 25 24 22 23 26 30 33 33 27 22 23 22 21 22 21 21 23 19 15 15 16 17 16 16 16 16 17 16 16 15 14 15 15 13 12
24 28 27 24 25 23 17 15 18 21 23 21 20 22 23 24 25 23 19 20 22 19 15 14 13 14 17 21 23 24 23 22 23 24 25 26 28 32 34 35 38 38 36 36 37 38 38 33 28 26 25 26 26 26 26 29 31 32 32 27 22 21 20 19 19 18 19 22 19 15 13 13 15 17 17 17 17 17 17 16 15 14 14 13 13 14
23 27 26 24 25 21 16 15 17 19 21 19 18 21 23 23 23 22 20 20 20 18 16 14 13 14 18 22 24 26 26 23 22 24 24 23 26 31 34 36 38 38 37 38 39 39 38 33 28 26 26 25 25 27 29 31 31 30 31 28 21 19 20 19 17 15 15 18 19 17 13 12 14 17 18 18 18 19 19 18 16 15 14 13 13 15
23 25 24 24 23 19 17 18 16 17 19 18 17 19 21 22 21 19 18 17 16 17 17 16 16 17 21 24 25 27 27 24 23 22 22 23 25 27 30 32 34 36 36 38 39 38 35 33 30 27 26 25 26 29 31 33 32 29 29 27 21 19 22 22 18 13 12 14 17 18 14 12 13 15 18 19 18 18 20 19 18 17 16 14 14 15
23 22 20 21 20 18 16 16 16 18 20 18 17 16 16 18 19 19 18 17 17 19 21 20 18 19 21 23 24 24 24 24 24 23 23 24 25 26 28 29 31 32 33 34 36 35 34 34 33 29 26 26 29 30 31 32 32 30 30 28 25 23 24 25 22 15 14 15 16 17 15 12 11 13 16 18 19 19 21 21 20 19 18 15 15 16
20 19 19 18 17 17 16 14 16 19 19 18 16 13 11 12 17 19 18 18 20 22 23 21 18 19 20 22 24 23 23 24 23 22 22 22 24 25 27 28 29 29 31 34 34 33 33 34 32 30 26 25 26 26 26 28 28 28 29 28 28 27 28 29 25 18 16 17 16 16 16 13 10 10 13 16 18 20 22 21 21 22 19 16 17 18
20 18 19 19 16 16 15 14 17 19 19 19 16 12 11 10 14 18 18 19 22 23 24 23 22 21 21 23 24 24 24 24 22 21 21 21 21 23 25 26 26 27 28 31 32 31 32 32 31 29 26 23 21 20 21 23 23 25 26 27 30 31 29 28 25 19 17 17 16 17 19 17 12 10 11 14 17 19 21 20 21 21 17 15 17 19
23 20 20 20 17 16 16 16 18 19 20 21 18 16 16 15 16 17 18 21 23 23 23 22 21 22 22 23 24 23 23 23 22 21 21 21 21 23 25 25 26 26 26 25 25 23 24 26 27 27 25 21 19 18 18 17 18 22 25 26 29 28 25 23 22 19 16 16 15 16 19 20 17 12 11 13 16 18 19 19 20 18 15 15 17 18
25 24 23 22 19 17 17 17 17 16 17 21 22 21 21 22 22 20 20 22 22 22 23 21 20 22 22 22 22 22 22 22 23 24 25 25 25 25 24 24 24 24 22 21 19 14 13 15 16 18 19 17 15 14 15 14 14 18 22 23 24 24 23 22 21 18 14 13 15 16 17 19 19 16 14 13 15 17 16 19 21 16 12 14 16 17
26 25 24 21 19 19 17 17 16 14 15 19 23 24 21 21 24 24 23 22 21 21 22 21 22 24 23 22 22 22 22 21 21 22 24 24 24 23 21 20 19 18 17 19 18 15 15 13 12 13 14 14 13 12 12 13 13 15 18 19 20 21 21 19 17 13 9 10 12 14 17 18 18 18 16 15 16 18 17 20 23 19 14 14 16 17
27 27 25 23 22 22 19 15 12 15 21 22 21 22 23 23 23 23 24 23 21 21 22 22 24 25 24 23 23 22 21 20 20 20 21 22 20 17 15 13 14 14 16 17 18 19 19 18 16 15 14 13 12 12 13 12 12 13 14 14 15 17 17 16 15 12 11 11 11 11 15 17 18 18 17 16 17 19 19 21 23 22 18 17 18 19
28 29 28 26 25 24 22 17 13 19 28 27 23 24 26 27 26 25 24 23 22 22 23 23 24 26 26 25 23 21 20 21 20 18 17 18 18 13 10 10 12 14 15 16 17 18 19 20 19 17 17 15 14 15 15 15 14 14 14 13 11 11 13 14 16 16 15 15 14 13 14 15 17 18 18 17 18 19 20 22 23 23 22 20 20 21
28 28 28 28 27 25 24 24 23 25 29 29 27 28 27 26 27 28 28 26 24 24 24 23 24 26 26 24 22 21 20 21 21 17 15 13 13 12 10 10 13 14 16 16 16 17 19 20 21 20 20 19 18 17 15 14 15 15 15 16 14 13 12 13 16 17 17 17 18 17 16 15 16 17 18 19 19 19 21 23 24 23 21 22 22 21
28 26 25 26 28 28 27 27 26 27 28 28 29 30 29 27 27 28 29 29 27 27 27 26 26 26 25 23 22 19 18 19 19 18 18 15 13 12 11 12 13 15 17 18 18 19 19 20 21 22 22 21 22 21 19 20 20 20 19 19 18 18 17 16 17 18 19 19 20 20 20 18 17 17 18 20 20 20 20 22 23 21 20 23 24 22
29 27 25 25 27 29 31 30 28 27 27 29 30 30 29 27 26 27 28 29 29 30 30 29 29 28 25 23 22 19 17 15 13 13 15 15 15 13 12 12 14 16 17 19 20 20 20 21 22 22 22 22 23 23 23 24 23 23 24 23 22 23 23 22 22 22 22 22 23 23 22 20 18 18 19 20 19 19 19 20 22 22 22 23 24 23
30 28 26 25 27 29 30 30 30 30 29 28 28 29 29 27 26 26 27 28 28 29 31 31 30 29 27 27 26 24 21 17 14 13 14 13 14 14 13 14 14 16 17 18 20 21 21 22 22 22 22 22 23 24 24 24 23 24 25 26 25 25 26 26 26 26 25 25 25 25 23 21 20 20 21 22 21 20 20 19 20 21 22 22 24 25
32 30 27 25 26 27 30 30 30 31 32 30 29 28 29 28 26 26 28 29 28 29 31 31 29 27 28 27 24 23 22 21 18 17 16 14 13 13 14 15 16 17 17 17 19 20 21 22 23 23 23 23 24 24 24 25 25 24 26 27 27 26 26 27 28 28 28 27 27 26 25 24 22 22 24 25 24 23 22 21 20 20 21 21 23 25
35 34 30 26 24 26 28 30 30 30 29 30 30 28 29 30 28 27 29 30 30 30 31 29 27 26 26 22 19 18 20 20 18 16 16 15 14 14 15 16 17 18 17 17 18 19 20 22 23 23 24 25 25 26 26 26 26 26 26 27 27 27 27 27 28 29 29 29 28 27 27 26 23 24 26 26 25 25 23 21 20 20 19 19 22 25
28 32 31 28 26 25 26 29 31 30 28 27 27 26 26 28 28 28 29 31 31 31 32 31 30 30 30 29 26 24 21 19 18 18 17 16 14 14 15 17 18 18 18 17 17 18 20 21 22 23 24 25 26 26 27 27 27 27 27 27 27 27 27 27 28 29 30 29 26 26 28 26 24 25 27 27 26 25 23 20 20 19 19 19 22 26
21 25 27 28 27 26 26 26 27 28 29 29 29 28 26 25 26 28 30 30 30 31 31 32 30 28 29 30 28 25 22 20 20 20 19 17 14 14 16 18 19 19 19 19 19 19 21 22 22 23 24 25 25 25 25 25 26 26 26 26 27 27 28 28 27 28 29 28 27 28 28 27 27 26 28 29 28 27 24 23 21 20 20 21 23 26
19 21 23 25 25 25 26 26 23 24 26 28 30 30 27 24 24 27 30 30 30 30 29 29 27 23 22 22 22 22 22 23 22 21 20 18 17 16 18 20 21 21 21 21 21 21 21 22 23 23 23 24 24 24 23 23 24 25 25 25 26 27 28 28 28 28 27 27 28 28 27 27 27 27 29 30 29 28 25 24 21 20 21 21 23 25
19 20 21 22 23 23 25 26 25 24 24 25 27 28 26 24 22 23 26 29 29 28 28 28 27 25 23 23 22 23 24 24 23 22 21 20 20 20 21 22 24 24 24 23 23 23 23 23 24 23 23 23 23 23 23 22 23 24 25 25 25 26 26 27 27 27 25 25 26 26 26 25 26 29 30 29 29 28 26 24 21 20 20 20 21 23
19 19 20 21 22 22 24 26 26 25 24 24 26 27 26 25 23 20 21 23 25 26 27 28 28 27 27 26 24 23 23 23 22 21 21 21 22 23 24 25 25 25 25 25 25 25 25 25 24 24 23 23 23 23 23 23 23 24 24 24 24 25 25 25 26 25 23 22 23 24 24 24 25 27 28 27 28 27 26 24 22 21 22 22 21 23
20 20 21 21 21 23 24 25 26 26 26 24 24 26 27 27 27 25 22 21 23 26 27 28 27 27 27 25 23 21 21 21 21 21 21 22 23 23 24 25 26 26 26 26 25 26 26 26 26 25 25 24 24 24 24 23 23 23 23 23 23 23 23 23 23 22 21 20 20 21 22 22 23 24 24 24 27 27 24 23 23 23 24 25 24 24
21 21 22 21 21 23 24 24 25 25 26 26 25 26 27 27 27 27 25 22 22 24 27 26 25 25 26 26 26 26 25 23 23 24 24 24 24 24 24 25 26 26 26 26 26 26 26 26 26 26 25 25 24 24 24 24 23 22 22 21 21 21 21 21 20 20 20 20 21 22 22 21 22 23 23 24 26 28 25 22 22 23 24 26 26 24
23 23 23 23 23 25 24 24 24 25 25 25 25 25 26 26 25 25 24 22 21 23 26 27 25 24 24 25 27 29 28 26 26 26 26 26 25 25 26 26 26 27 27 27 27 26 26 26 26 26 26 25 25 25 25 25 23 22 21 21 21 19 19 20 19 19 19 19 20 22 21 21 22 22 23 25 28 27 24 22 23 24 24 26 27 24
25 24 24 24 24 25 25 24 25 26 26 25 24 23 24 25 25 26 25 23 22 22 24 27 27 26 25 23 23 25 27 27 27 27 27 27 26 26 26 27 27 27 28 28 27 27 28 27 27 26 26 26 26 26 26 26 24 23 21 21 21 20 19 19 17 15 16 18 22 25 24 23 24 25 25 27 28 27 25 24 25 25 26 27 26 24
24 23 24 24 24 24 24 24 24 25 25 24 24 23 22 23 24 26 27 26 25 24 23 25 26 26 26 24 23 23 24 26 27 28 28 28 27 27 27 27 28 28 29 29 28 28 29 29 28 27 26 26 26 26 27 26 26 24 23 22 22 21 20 19 17 13 11 12 18 26 30 29 27 28 28 28 28 27 26 25 25 27 29 29 27 25
22 22 23 24 23 23 24 23 21 21 21 21 20 21 21 21 21 23 25 25 25 24 22 22 23 24 24 24 24 23 24 24 25 27 28 29 29 28 28 28 29 29 30 30 30 30 30 30 30 29 27 26 26 27 27 27 26 25 25 23 22 21 21 21 20 17 13 9 10 18 27 30 29 28 28 28 28 26 26 26 26 28 32 34 32 28
21 22 23 23 22 23 24 23 22 21 20 18 18 18 18 17 17 18 20 21 21 21 20 19 20 20 21 21 22 23 23 23 23 24 25 27 28 29 29 30 30 31 31 31 31 31 31 31 31 31 30 28 27 27 27 27 25 25 24 24 23 21 22 23 22 20 17 14 11 11 16 21 26 29 30 29 28 27 28 29 28 29 32 35 35 31
20 21 22 22 21 21 22 23 23 22 21 20 19 18 16 15 16 16 17 17 17 16 16 17 18 18 18 18 19 19 19 20 21 22 23 25 26 27 29 30 31 32 32 31 32 32 32 32 32 32 32 30 28 28 28 28 26 25 24 25 24 22 22 23 23 21 19 17 15 13 13 15 19 25 29 30 29 29 30 31 31 32 34 35 35 33
19 20 21 21 21 21 21 22 23 22 21 21 21 20 16 16 17 16 15 15 15 15 15 16 17 17 17 17 17 17 17 18 19 21 22 24 25 26 28 29 31 32 32 32 32 32 33 33 33 33 33 32 30 30 30 29 28 27 26 26 26 24 23 23 23 22 21 19 17 16 15 16 17 19 23 27 30 32 34 35 35 35 37 37 36 35
17 18 19 19 19 20 20 21 22 21 20 20 22 22 19 17 17 17 16 15 15 15 16 17 17 17 17 17 17 17 18 18 19 20 21 22 23 24 26 28 30 31 32 33 33 34 34 34 34 34 34 34 33 32 31 31 31 29 28 27 27 26 25 25 24 23 22 21 20 19 18 17 17 16 17 20 23 26 31 35 37 37 37 37 37 36
15 16 17 17 17 18 18 18 20 20 20 20 21 20 18 16 16 16 16 16 16 17 17 17 18 18 18 18 18 18 19 19 20 20 21 22 23 24 25 27 28 30 31 32 33 34 35 35 35 35 35 35 35 34 33 32 32 31 30 29 28 27 26 25 25 24 22 21 20 20 19 19 17 16 16 17 17 18 21 26 30 33 34 34 35 36
14 14 14 15 15 14 14 15 17 19 20 19 17 14 13 13 13 13 14 14 14 15 15 16 16 17 18 19 19 19 20 20 21 21 21 22 23 24 25 26 27 28 29 31 32 34 34 34 35 35 35 36 36 35 34 33 32 31 30 29 27 25 24 23 23 23 22 21 19 19 20 21 21 20 18 17 17 17 18 21 25 28 30 31 32 32
12 11 11 11 11 11 12 14 16 17 18 16 12 10 8 8 8 8 9 9 10 11 11 12 13 15 16 17 19 20 21 21 22 22 23 24 24 25 26 27 28 29 30 30 32 33 33 33 34 35 35 36 36 35 35 34 33 31 29 27 24 21 20 22 22 22 22 21 21 20 19 19 20 22 20 18 18 20 21 22 24 27 29 30 31 31
9 10 10 10 10 12 13 15 16 15 14 11 8 6 6 5 5 6 6 7 8 10 11 12 13 15 16 17 19 20 21 22 23 24 25 26 26 27 28 29 30 31 31 31 32 32 33 33 33 34 34 34 34 34 33 33 32 31 28 24 20 19 21 24 24 23 23 23 22 22 21 19 20 23 24 23 23 24 26 27 28 29 31 32 32 32
9 11 12 11 11 11 12 12 13 12 9 8 6 5 4 4 4 5 6 7 9 10 12 14 16 17 19 21 22 23 23 24 25 26 26 27 28 29 30 30 31 32 32 33 33 33 34 34 33 33 33 33 32 31 31 29 27 27 26 23 19 20 25 28 27 27 27 28 27 26 25 23 23 25 29 30 30 30 31 32 32 33 34 34 33 33
16 16 15 13 11 10 10 10 10 9 7 6 4 4 3 3 4 4 5 7 8 10 12 14 16 18 20 22 25 26 28 29 29 30 30 31 31 31 32 32 33 33 33 34 34 34 35 35 35 35 35 34 33 32 31 29 26 24 24 24 24 25 29 32 32 31 31 32 32 30 29 27 26 26 30 34 37 37 37 36 36 36 37 37 36 35
17 16 16 15 11 9 9 9 8 7 6 4 3 2 1 2 3 4 6 7 8 10 12 14 16 18 20 22 24 26 29 31 33 34 35 35 36 36 35 35 35 35 35 35 35 35 35 36 37 38 38 38 37 36 34 33 30 27 27 29 32 32 33 34 35 35 33 32 31 31 32 32 31 30 30 33 36 38 40 40 39 39 40 41 40 38
Wind_Direction
223 226 227 227 228 227 228 227 222 219 221 224 227 229 233 240 235 173 219 254 267 270 273 272 271 275 273 257 254 256 256 257 263 276 286 287 284 281 278 281 289 289 285 279 272 272 272 271 270 271 269 269 272 272 271 273 277 285 289 285 286 288 288 284 276 280 283 265 259 262 261 262 252 239 231 224 224 226 228 233 236 234 226 220 222 222
223 225 225 223 225 223 222 222 218 217 222 228 232 234 238 234 203 167 216 253 260 260 265 272 276 278 275 263 255 262 261 258 268 284 289 289 289 287 284 286 290 289 286 283 276 272 269 268 268 266 264 265 270 273 272 273 279 288 290 286 286 285 279 273 274 280 277 261 251 251 256 254 240 235 232 222 221 222 222 232 237 236 234 230 228 227
224 223 220 217 220 220 220 221 220 217 219 228 234 239 243 229 200 185 195 231 245 254 262 268 271 270 269 272 270 262 255 256 266 276 279 283 287 287 286 287 287 285 284 281 278 273 269 267 268 265 262 263 268 274 277 280 286 291 292 291 288 282 274 269 272 272 266 256 245 238 240 240 229 227 229 223 222 222 222 230 234 236 236 230 231 232
220 215 212 213 216 218 218 220 220 218 220 225 231 239 243 228 211 201 191 212 233 252 263 264 270 274 275 277 275 266 257 254 260 263 265 274 280 282 284 285 284 280 276 276 275 271 268 268 267 265 264 263 267 273 277 278 280 281 282 286 284 277 271 265 264 263 258 250 245 240 233 228 225 228 228 223 225 227 228 233 235 236 234 231 233 230
216 215 215 217 219 221 223 224 225 225 225 228 234 242 245 232 224 216 207 215 224 237 254 261 268 273 278 280 275 270 267 260 260 261 257 267 279 284 284 285 284 278 271 271 271 268 266 266 265 264 264 263 266 270 271 272 275 274 270 270 268 266 265 260 256 259 258 249 248 247 237 225 221 227 227 223 229 233 235 238 237 237 235 234 233 226
218 223 224 225 226 228 229 230 232 233 232 233 239 245 241 228 231 227 217 217 219 226 240 248 255 264 271 273 264 261 267 264 260 254 241 253 276 280 279 278 280 279 274 270 268 265 264 265 265 263 261 261 265 268 268 271 276 275 271 267 259 254 257 255 251 253 260 259 248 240 236 229 225 229 227 223 231 235 237 239 237 237 238 236 232 224
224 230 233 233 231 231 232 231 235 239 235 230 232 235 228 223 229 231 226 225 231 237 242 244 250 260 263 264 272 286 281 268 261 255 246 249 262 265 264 267 272 278 279 274 269 264 263 265 263 260 260 262 266 268 269 273 274 270 270 272 261 246 246 248 245 246 254 261 251 238 233 229 225 229 227 224 231 235 238 240 237 241 241 235 230 223
226 231 236 239 236 233 235 235 236 238 230 219 221 225 226 225 226 230 232 235 242 248 246 243 247 256 260 266 287 294 281 269 266 265 257 250 252 258 263 267 272 278 279 277 276 275 276 277 273 268 266 266 267 269 273 275 269 262 262 267 258 240 238 241 239 240 243 244 243 236 233 231 229 231 229 226 232 237 237 236 237 241 239 232 225 221
221 227 232 235 237 236 237 236 230 228 222 211 211 217 218 220 222 224 226 228 234 241 243 239 242 255 263 267 272 270 263 260 251 246 254 259 255 257 265 271 273 275 277 279 284 286 285 281 280 281 277 270 265 266 269 268 263 255 250 252 250 239 235 237 236 237 237 236 239 235 233 238 243 241 236 232 236 240 235 232 236 236 232 225 218 216
211 217 229 233 235 238 239 233 227 229 223 204 205 217 220 221 220 221 225 231 239 248 251 245 243 252 262 266 264 254 250 251 239 229 239 257 257 256 264 270 270 269 272 277 283 286 286 281 278 278 278 270 261 259 260 259 256 249 243 243 242 238 237 239 238 238 238 238 244 243 236 240 246 246 242 237 238 239 237 236 236 230 224 218 211 212
210 207 220 232 235 237 238 234 229 230 222 205 207 218 223 223 225 227 231 241 251 256 261 261 252 250 255 260 256 246 243 242 238 231 232 240 247 253 259 261 261 262 266 272 275 279 281 282 281 280 278 271 258 250 249 248 246 242 240 238 236 235 239 243 243 243 239 236 245 253 249 245 246 246 245 240 238 239 237 233 229 223 218 212 207 211
216 213 215 224 234 235 233 233 230 226 222 212 210 219 223 224 233 241 241 243 251 260 267 264 254 247 250 254 251 248 247 244 243 238 235 238 242 247 253 253 255 258 263 266 267 269 273 277 281 284 281 272 259 248 245 245 247 248 244 238 234 236 241 245 246 245 238 233 241 256 259 252 249 247 244 241 240 239 235 229 225 220 215 211 206 208
215 222 220 218 230 234 226 226 229 228 228 224 218 224 228 229 239 247 245 245 252 260 260 247 239 239 245 253 254 255 255 251 249 245 240 241 242 244 247 247 249 256 261 263 264 268 273 274 277 280 278 269 258 252 249 247 252 256 253 245 240 239 240 243 246 245 239 236 237 247 259 258 251 248 244 242 242 240 235 230 224 218 217 219 211 205
215 225 228 223 229 236 234 236 236 231 231 229 225 230 234 234 241 248 249 252 255 257 255 245 235 230 232 243 250 253 256 254 250 247 243 244 246 246 246 245 248 254 259 260 262 268 272 270 268 270 268 262 256 254 253 250 253 257 254 250 248 243 239 246 252 246 241 241 236 236 252 265 258 248 244 243 243 240 235 228 221 220 225 226 213 208
213 219 231 236 235 235 239 239 232 231 232 228 224 230 236 237 238 242 248 252 255 259 258 250 241 237 236 243 248 250 254 256 253 252 249 248 251 252 252 250 251 254 257 259 261 265 267 267 266 266 262 256 255 259 260 258 257 258 253 245 244 245 240 244 254 246 231 234 233 232 245 268 268 254 244 242 240 236 233 229 225 226 228 222 213 214
220 217 224 239 238 224 220 221 220 227 231 230 227 226 233 240 238 235 235 237 241 249 253 248 243 242 243 248 253 253 255 258 258 258 258 258 259 259 258 256 255 256 258 260 261 263 265 266 268 268 263 258 261 266 269 266 262 258 250 237 233 239 237 238 245 239 223 224 228 231 242 262 268 256 245 240 238 232 230 232 233 230 226 220 222 229
228 225 220 229 231 220 210 205 212 220 224 230 234 235 242 245 239 232 225 229 238 244 252 256 252 249 248 250 254 256 259 261 261 260 261 263 264 263 263 261 261 261 261 259 259 261 263 266 267 266 263 262 267 272 272 269 263 253 243 231 227 231 233 233 235 232 223 223 226 229 239 251 262 263 250 238 236 231 227 231 233 227 222 224 235 240
219 222 224 221 214 220 223 210 206 209 216 225 225 230 246 245 237 228 218 225 238 242 249 254 254 253 253 254 256 259 262 264 263 259 259 261 263 266 267 267 267 266 263 259 257 260 263 264 263 261 259 261 269 275 272 267 259 246 235 227 226 229 230 230 230 227 224 225 225 225 230 239 257 277 262 238 231 229 230 231 224 216 216 226 235 237
218 215 223 223 204 209 227 223 213 204 207 218 215 208 217 226 236 234 226 231 239 244 249 254 256 256 255 256 259 260 262 264 263 262 262 260 261 265 269 273 272 270 267 260 255 259 262 260 259 258 256 255 260 270 274 265 249 239 234 232 233 231 227 227 227 229 233 234 234 231 229 233 246 268 274 251 231 226 232 225 208 204 214 223 227 227
226 219 221 225 207 203 220 224 216 203 201 213 218 212 205 210 222 229 231 237 241 246 252 255 255 255 254 254 257 258 261 264 266 270 272 269 267 268 270 273 272 269 264 250 242 252 258 250 252 256 252 249 252 261 270 268 258 248 242 241 240 233 226 227 227 228 237 242 241 243 241 238 241 254 272 269 241 227 226 212 200 204 219 225 226 226
225 223 221 223 206 199 219 227 216 207 209 215 220 222 218 213 218 225 230 234 239 246 253 255 254 256 257 256 258 260 262 264 269 277 280 278 275 271 269 269 265 259 254 241 239 259 270 261 260 265 262 259 258 258 263 268 269 264 253 248 246 240 236 239 236 235 252 258 247 245 248 245 240 244 262 273 252 232 223 213 211 221 233 233 235 233
218 220 218 218 206 198 207 225 218 201 206 216 219 219 222 220 217 222 230 234 239 246 250 253 254 257 259 259 261 262 261 265 272 281 282 278 275 269 259 255 250 246 248 247 253 268 276 275 274 276 277 277 275 273 273 272 269 264 259 258 257 252 254 256 254 259 269 262 248 242 246 244 236 237 250 263 255 236 224 218 220 229 235 235 237 236
216 220 215 210 209 202 194 200 210 199 200 209 215 214 219 222 219 219 225 232 239 243 245 247 250 256 260 262 263 263 264 267 271 281 285 274 267 262 250 244 245 246 250 253 259 266 271 274 276 276 278 284 288 289 289 285 278 270 265 272 275 267 265 260 255 260 263 257 250 248 249 245 236 234 239 250 252 238 223 216 218 224 229 231 233 234
218 224 221 211 211 211 200 196 205 208 203 203 210 215 219 222 222 222 225 229 232 237 242 246 249 255 260 263 264 266 269 267 264 277 288 274 261 261 260 257 255 255 257 257 258 260 263 269 273 274 276 279 280 285 291 294 294 288 279 279 283 279 273 264 255 256 258 258 260 260 258 252 243 237 237 242 246 238 223 214 215 221 226 229 230 233
219 230 231 219 212 212 209 205 206 211 211 209 213 217 218 219 220 222 228 230 230 234 240 244 248 253 259 262 261 265 272 270 265 273 276 269 265 266 261 257 257 257 258 257 257 257 258 263 268 272 276 277 277 277 279 283 289 290 285 282 283 281 277 274 269 261 256 261 271 274 269 262 253 247 244 241 240 237 228 219 220 227 235 232 229 232
221 230 234 227 217 211 211 214 215 216 216 217 219 220 220 222 223 223 228 232 234 238 241 243 247 252 258 262 263 267 276 275 268 271 271 266 265 261 252 252 254 254 254 255 257 258 257 258 262 268 272 275 276 276 276 277 278 279 280 279 280 281 279 278 275 265 263 273 279 278 275 269 259 253 248 238 230 234 235 228 224 229 236 235 228 229
222 227 231 227 222 217 216 219 223 225 224 224 226 225 225 229 231 229 231 234 238 243 246 247 249 253 260 267 270 271 272 271 268 270 274 270 263 256 251 253 255 255 256 257 258 259 258 257 257 259 263 267 271 273 275 276 274 272 274 275 276 277 277 276 272 267 270 278 277 273 274 270 257 250 247 234 225 234 239 233 228 228 233 235 229 227
224 228 230 227 223 220 220 223 226 229 231 233 235 233 229 231 234 233 232 235 240 244 248 250 253 258 263 269 270 267 264 267 270 269 269 267 261 258 257 257 257 258 260 260 261 262 261 261 260 258 258 260 263 267 269 272 272 270 270 272 273 274 274 272 270 268 271 275 273 270 270 265 257 252 246 232 225 234 238 233 231 232 233 235 233 229
227 228 228 226 226 224 223 225 228 230 231 233 238 238 232 231 234 234 232 235 240 245 248 250 254 259 261 262 265 267 265 265 264 261 262 263 261 260 257 256 257 260 262 263 265 265 265 266 266 264 263 262 263 264 266 267 269 269 270 273 274 274 273 271 269 269 270 271 270 268 263 260 258 252 239 229 226 230 232 233 234 236 237 237 235 231
225 224 222 222 227 229 228 230 233 234 235 234 237 240 237 234 237 239 236 235 239 243 246 249 254 257 257 257 262 267 265 259 255 255 258 261 259 255 252 253 256 258 263 266 268 271 271 271 271 270 270 269 268 268 268 268 269 270 272 273 274 274 272 270 268 268 270 270 268 266 261 255 254 246 232 229 229 223 227 240 245 243 242 238 236 233
222 221 220 221 228 231 231 234 238 240 241 239 238 242 243 242 243 245 243 240 240 242 243 248 254 258 258 257 258 259 256 253 253 254 255 255 256 253 251 253 255 257 261 265 268 271 273 275 277 276 275 274 273 273 273 272 272 271 271 270 270 270 269 268 267 266 270 273 270 267 262 258 256 244 230 229 225 217 228 247 249 249 250 246 242 235
228 226 222 224 231 233 233 235 239 242 243 241 241 243 245 246 248 248 245 242 242 243 245 248 252 256 260 256 252 250 250 251 251 252 251 250 250 251 251 252 255 257 259 261 263 267 270 274 277 278 278 278 278 278 277 275 274 272 271 269 268 269 268 267 266 265 268 272 271 268 263 258 250 233 224 227 222 217 233 248 247 251 255 250 243 232
232 233 230 230 233 236 237 237 238 241 244 242 242 242 240 242 246 247 244 240 240 243 247 248 250 255 260 258 253 250 249 250 251 250 248 245 244 247 249 250 251 253 255 257 259 262 265 270 274 277 279 279 279 280 279 278 278 277 276 275 273 273 271 268 267 267 266 266 268 269 262 249 234 220 219 223 221 223 238 247 248 253 249 238 234 230
234 236 236 234 234 237 239 239 239 242 245 246 244 242 239 241 245 247 247 244 242 244 247 249 252 256 258 257 255 251 249 249 249 246 245 244 243 244 245 247 248 250 252 254 255 257 260 264 268 272 275 276 277 279 279 280 281 281 282 281 279 278 276 271 268 266 263 259 260 262 251 232 218 216 219 222 222 228 239 245 248 250 239 226 222 223
236 238 239 237 236 238 239 240 240 241 244 247 248 245 243 244 246 250 254 253 248 246 248 250 251 253 253 252 250 248 247 247 245 243 245 247 246 244 244 246 247 248 250 252 253 255 257 260 264 267 270 272 274 276 278 279 281 282 283 283 283 284 282 276 268 261 257 250 247 249 243 230 220 219 219 221 225 229 237 245 247 241 229 218 210 211
237 239 242 241 239 240 241 241 242 243 246 249 250 249 248 248 249 251 254 254 250 247 247 249 250 250 251 251 250 249 248 247 247 247 249 250 248 245 244 245 247 248 250 251 253 255 257 260 263 266 268 270 271 272 275 277 278 281 282 281 283 284 282 277 269 261 254 245 237 237 238 233 229 225 220 219 225 231 237 241 234 222 212 206 205 212
238 238 242 244 243 243 243 243 243 245 248 251 252 252 251 250 250 248 249 251 250 245 244 247 249 250 251 251 250 249 247 247 248 249 250 250 249 246 245 246 248 249 251 252 254 257 259 261 264 267 269 270 270 271 272 274 276 279 281 281 282 282 279 274 268 262 254 241 230 229 233 233 231 228 224 224 228 235 238 231 221 214 208 204 208 218
241 240 242 245 246 246 247 246 245 246 248 251 253 253 252 252 250 247 247 250 252 249 245 246 249 251 253 252 250 248 247 246 247 247 248 250 249 247 247 247 249 251 252 253 255 258 260 261 263 266 268 270 271 272 272 273 275 277 280 282 283 285 283 274 266 259 250 236 227 225 226 231 233 232 231 232 234 236 234 226 222 221 217 213 216 225
241 241 243 245 246 246 248 248 247 247 248 249 251 251 250 249 249 248 248 251 254 254 251 248 249 252 253 253 252 250 248 248 248 248 248 248 248 248 249 249 249 251 252 253 255 257 259 261 262 264 266 269 270 272 272 273 274 275 276 278 281 285 286 278 269 264 256 247 239 228 219 216 222 228 231 233 234 234 231 226 223 220 217 218 224 232
237 238 240 244 245 245 245 246 245 243 244 246 251 254 254 252 250 249 248 248 250 251 251 249 249 252 254 254 253 251 249 248 248 248 247 245 246 247 249 249 249 250 251 253 255 256 258 260 261 263 265 266 268 270 272 273 274 274 274 275 276 279 282 281 277 274 272 277 271 243 223 214 213 219 227 231 231 230 227 223 221 218 215 219 226 231
236 236 239 244 247 247 245 244 243 242 243 247 251 253 252 250 245 240 239 241 242 243 245 247 249 250 252 254 254 254 252 250 248 247 245 243 244 246 247 248 249 249 251 253 255 257 258 259 260 262 264 265 266 268 271 272 273 273 274 275 275 274 277 278 279 280 278 277 279 263 238 224 219 220 226 232 231 227 224 222 222 221 221 225 228 231
236 237 240 245 249 249 247 243 242 241 240 240 243 245 243 240 237 232 230 233 235 236 241 247 249 248 248 248 250 252 252 251 250 248 245 245 246 248 250 250 249 248 250 252 254 257 258 259 260 261 263 264 264 264 266 269 271 271 272 274 276 274 272 272 274 278 279 276 273 266 253 243 237 232 231 234 233 229 226 225 224 223 226 230 232 234
240 242 245 247 249 250 248 243 241 241 238 234 237 242 244 242 240 237 236 237 238 238 239 242 245 246 245 245 247 248 248 248 248 247 246 247 248 250 252 251 250 249 250 252 254 256 257 259 261 262 264 265 264 263 264 266 268 268 268 272 277 278 274 272 272 271 270 268 266 263 254 247 243 240 238 238 238 235 232 230 229 227 228 231 233 236
243 243 243 243 243 245 244 240 237 235 232 231 235 238 238 236 235 234 237 240 241 241 240 241 245 247 248 248 250 251 251 252 252 251 250 249 248 248 249 249 249 250 251 253 255 257 258 259 260 261 263 265 264 263 263 265 266 267 268 269 274 277 277 275 274 272 269 264 260 259 256 248 239 238 244 247 244 242 241 238 234 232 232 235 237 240
237 237 237 238 238 236 233 230 229 226 226 231 235 230 223 222 227 231 236 240 243 246 248 249 250 251 252 252 253 254 254 255 256 257 257 255 253 251 250 249 250 251 253 255 257 258 259 260 261 262 263 263 263 262 262 264 266 269 270 271 273 274 274 273 272 271 270 268 264 260 256 252 246 246 255 259 256 254 252 246 238 234 234 237 239 240
235 237 238 237 232 226 219 217 217 218 222 226 222 209 203 212 224 231 238 243 247 252 255 257 257 258 258 259 259 260 260 259 258 258 258 258 258 256 254 253 252 253 255 257 259 260 261 261 262 263 263 263 263 262 262 262 264 267 270 272 275 275 270 265 265 265 265 266 265 259 254 254 257 259 262 264 264 263 261 257 249 243 239 238 239 240
229 226 223 219 215 211 210 205 199 198 203 204 194 182 187 204 219 230 241 249 254 258 262 264 266 266 266 266 266 266 266 265 264 262 259 257 257 256 256 256 257 258 259 260 261 261 261 262 262 262 263 264 264 263 263 263 263 265 267 270 275 275 265 255 253 254 255 257 257 253 248 247 254 259 261 259 257 254 252 250 248 244 242 243 245 247
217 207 198 193 191 192 197 198 190 185 186 183 174 175 186 198 217 235 249 258 264 269 271 272 273 273 272 271 270 269 269 269 268 267 266 263 260 258 256 257 259 261 262 263 263 263 263 263 262 262 262 263 263 264 264 264 264 264 264 265 267 266 258 251 249 249 250 251 253 253 250 243 243 249 253 252 248 245 247 249 248 247 248 251 253 254
165 168 168 166 165 166 170 174 171 164 160 159 161 172 188 208 231 247 258 266 271 275 277 277 277 276 275 273 271 269 269 268 267 267 268 268 267 266 264 262 261 261 261 261 261 262 263 264 264 262 261 261 261 262 264 265 265 263 262 261 258 252 248 247 247 249 252 253 252 252 253 248 241 240 244 247 246 245 248 253 254 254 255 257 257 257
127 135 138 132 131 137 136 136 138 137 135 142 159 180 204 226 246 261 273 280 284 289 293 294 293 290 286 283 279 275 272 269 266 265 265 265 265 266 266 266 266 265 264 262 261 260 260 261 261 261 261 261 261 261 262 264 262 258 256 256 253 248 247 249 252 254 256 256 254 253 254 253 247 241 241 243 242 242 244 247 250 252 254 256 257 256
112 121 123 114 110 118 121 117 118 119 122 132 148 173 233 281 304 311 313 315 318 319 319 319 318 313 307 301 294 286 281 275 271 267 266 264 263 262 262 262 263 264 265 265 264 262 260 258 258 258 259 260 261 260 260 260 258 254 250 250 249 247 246 249 253 256 257 256 254 252 252 251 248 244 243 243 243 242 242 244 245 244 245 248 252 254
Height
5743 5745 5747 5751 5754 5757 5759 5760 5762 5763 5764 5765 5767 5767 5768 5770 5775 5778 5779 5780 5780 5780 5779 5778 5779 5781 5784 5785 5785 5785 5784 5784 5784 5784 5784 5783 5784 5785 5786 5787 5788 5789 5789 5790 5790 5790 5790 5790 5791 5792 5793 5793 5792 5792 5793 5793 5793 5794 5795 5795 5795 5795 5794 5795 5793 5791 5791 5792 5792 5792 5791 5792 5793 5794 5796 5799 5801 5805 5807 5809 5810 5811 5812 5812 5813 5813
5740 5743 5747 5750 5752 5754 5755 5756 5758 5760 5762 5763 5763 5764 5765 5768 5773 5775 5777 5779 5778 5777 5777 5776 5776 5778 5779 5782 5784 5784 5783 5783 5783 5783 5781 5779 5779 5780 5782 5784 5785 5787 5787 5787 5788 5787 5787 5787 5788 5790 5790 5790 5790 5789 5790 5791 5791 5792 5793 5794 5794 5793 5792 5792 5791 5789 5788 5788 5788 5787 5788 5790 5791 5791 5794 5797 5800 5802 5805 5806 5807 5808 5810 5811 5811 5811
5739 5743 5746 5748 5748 5749 5751 5753 5755 5757 5759 5760 5761 5761 5763 5768 5771 5772 5774 5776 5775 5776 5777 5775 5773 5775 5777 5780 5781 5782 5783 5782 5782 5782 5781 5778 5776 5776 5778 5780 5783 5784 5785 5785 5785 5785 5784 5784 5785 5787 5788 5789 5788 5788 5788 5789 5790 5791 5791 5792 5792 5791 5790 5790 5790 5789 5786 5786 5786 5785 5784 5787 5789 5789 5791 5794 5797 5800 5802 5803 5805 5806 5807 5809 5810 5810
5738 5741 5742 5743 5743 5745 5747 5750 5753 5754 5755 5757 5758 5759 5762 5767 5769 5770 5771 5772 5773 5774 5774 5772 5770 5771 5774 5777 5778 5779 5780 5780 5780 5782 5781 5779 5776 5774 5775 5777 5779 5781 5783 5782 5782 5782 5782 5782 5783 5785 5786 5787 5786 5785 5786 5787 5788 5789 5789 5789 5790 5788 5788 5788 5788 5787 5785 5784 5785 5785 5784 5785 5788 5789 5789 5791 5793 5796 5799 5801 5802 5803 5804 5806 5807 5807
5736 5737 5738 5739 5740 5742 5745 5747 5749 5750 5752 5754 5755 5757 5762 5765 5766 5767 5769 5770 5771 5771 5769 5769 5768 5768 5771 5774 5775 5776 5777 5778 5778 5779 5780 5779 5777 5774 5772 5773 5775 5777 5779 5780 5779 5778 5779 5780 5781 5782 5783 5783 5783 5783 5782 5783 5786 5786 5786 5787 5786 5786 5786 5786 5785 5785 5783 5783 5783 5784 5784 5784 5786 5786 5786 5788 5790 5793 5796 5798 5799 5800 5801 5803 5804 5805
5733 5734 5735 5736 5739 5740 5742 5744 5745 5746 5749 5752 5753 5755 5760 5763 5762 5764 5766 5767 5766 5766 5767 5767 5767 5766 5768 5771 5773 5774 5775 5776 5775 5776 5777 5779 5777 5773 5769 5769 5770 5772 5775 5776 5776 5775 5776 5777 5778 5779 5779 5780 5780 5779 5779 5782 5784 5784 5784 5784 5783 5783 5783 5784 5784 5783 5781 5781 5782 5782 5783 5783 5783 5784 5784 5787 5789 5791 5793 5795 5796 5798 5799 5801 5802 5804
5730 5731 5732 5734 5736 5737 5739 5740 5741 5743 5747 5750 5751 5754 5757 5759 5759 5761 5762 5763 5763 5764 5766 5765 5764 5764 5765 5768 5771 5772 5773 5773 5771 5772 5772 5773 5772 5769 5766 5766 5768 5769 5771 5772 5772 5772 5774 5775 5775 5775 5776 5777 5778 5776 5778 5781 5782 5781 5781 5781 5781 5780 5780 5781 5782 5780 5779 5780 5781 5781 5781 5781 5781 5781 5783 5785 5786 5789 5792 5793 5795 5796 5798 5799 5801 5802
5727 5729 5730 5731 5732 5734 5735 5737 5739 5741 5744 5747 5749 5752 5754 5755 5756 5757 5760 5762 5762 5763 5763 5763 5762 5761 5761 5766 5769 5770 5771 5770 5768 5768 5767 5766 5767 5766 5766 5766 5767 5768 5768 5768 5769 5771 5773 5773 5773 5773 5774 5775 5775 5774 5776 5778 5778 5778 5777 5778 5778 5778 5778 5778 5778 5778 5778 5779 5779 5780 5780 5780 5780 5779 5780 5782 5784 5787 5790 5791 5793 5795 5796 5798 5799 5799
5725 5726 5727 5728 5729 5730 5733 5736 5738 5739 5741 5744 5747 5748 5749 5750 5751 5754 5756 5757 5757 5757 5758 5760 5761 5759 5760 5765 5768 5767 5768 5766 5766 5766 5765 5764 5765 5765 5765 5765 5766 5767 5765 5766 5767 5768 5770 5771 5771 5772 5773 5773 5773 5773 5774 5775 5775 5775 5773 5774 5775 5776 5775 5775 5775 5776 5777 5778 5778 5778 5778 5779 5780 5780 5780 5781 5782 5785 5787 5790 5792 5793 5795 5796 5796 5797
5721 5724 5725 5725 5726 5728 5731 5735 5736 5736 5738 5742 5744 5744 5745 5746 5748 5750 5752 5753 5754 5753 5754 5758 5759 5759 5759 5762 5764 5763 5762 5762 5764 5766 5765 5765 5765 5765 5765 5764 5764 5764 5763 5763 5764 5765 5767 5769 5769 5770 5771 5771 5770 5770 5772 5772 5772 5771 5768 5769 5771 5773 5774 5773 5773 5774 5776 5778 5778 5777 5777 5778 5778 5779 5780 5781 5782 5784 5785 5787 5789 5791 5793 5793 5794 5795
5718 5721 5722 5722 5724 5727 5729 5731 5732 5734 5737 5740 5740 5740 5743 5744 5744 5746 5749 5751 5751 5750 5752 5756 5757 5757 5757 5758 5760 5759 5759 5760 5763 5764 5765 5765 5765 5764 5764 5763 5762 5762 5761 5761 5762 5763 5764 5766 5766 5767 5768 5768 5767 5767 5768 5767 5766 5764 5762 5764 5768 5771 5772 5771 5770 5771 5773 5775 5777 5777 5777 5777 5777 5778 5779 5780 5781 5782 5784 5785 5787 5789 5791 5791 5792 5793
5716 5717 5718 5720 5721 5724 5726 5728 5730 5732 5734 5736 5737 5738 5740 5742 5742 5743 5747 5748 5747 5748 5751 5754 5754 5754 5754 5754 5755 5756 5757 5759 5761 5762 5762 5762 5762 5761 5760 5761 5761 5760 5759 5759 5760 5760 5761 5763 5764 5764 5765 5765 5764 5763 5763 5762 5761 5760 5760 5764 5768 5769 5769 5769 5768 5768 5770 5773 5775 5777 5777 5777 5777 5777 5778 5779 5780 5781 5783 5784 5786 5787 5788 5789 5790 5791
5713 5713 5716 5719 5719 5721 5724 5727 5728 5729 5731 5733 5735 5736 5738 5739 5740 5741 5744 5745 5745 5747 5749 5750 5750 5751 5751 5750 5751 5752 5754 5756 5757 5758 5758 5758 5758 5757 5756 5758 5758 5757 5757 5757 5757 5757 5758 5760 5762 5762 5762 5762 5761 5760 5758 5757 5757 5759 5761 5765 5767 5768 5767 5766 5765 5766 5768 5770 5773 5775 5776 5776 5776 5776 5777 5778 5779 5780 5782 5783 5784 5786 5787 5788 5789 5790
5711 5711 5714 5716 5717 5720 5723 5724 5726 5727 5729 5731 5733 5734 5735 5737 5738 5739 5741 5742 5743 5745 5746 5746 5747 5748 5748 5748 5748 5749 5750 5752 5753 5753 5754 5755 5754 5753 5753 5755 5755 5754 5754 5754 5754 5754 5754 5756 5758 5759 5758 5758 5757 5755 5754 5753 5754 5756 5759 5762 5766 5767 5766 5765 5764 5765 5767 5768 5771 5773 5774 5774 5774 5774 5775 5776 5777 5778 5780 5781 5782 5784 5785 5786 5787 5789
5708 5710 5711 5713 5716 5719 5721 5722 5723 5725 5726 5727 5730 5731 5732 5734 5736 5737 5738 5739 5740 5742 5742 5743 5745 5745 5745 5746 5747 5747 5748 5749 5749 5750 5751 5752 5751 5750 5751 5752 5752 5752 5752 5751 5751 5751 5751 5751 5753 5754 5754 5754 5752 5751 5751 5752 5753 5754 5755 5759 5763 5765 5765 5763 5763 5764 5765 5766 5768 5770 5771 5771 5771 5772 5773 5774 5775 5777 5778 5780 5781 5782 5783 5784 5786 5787
5705 5708 5711 5712 5714 5717 5718 5719 5721 5722 5723 5724 5726 5729 5730 5732 5734 5735 5736 5737 5737 5738 5739 5741 5742 5743 5743 5744 5744 5745 5745 5745 5746 5748 5749 5749 5748 5748 5748 5749 5749 5749 5749 5748 5747 5748 5748 5748 5748 5749 5749 5749 5748 5748 5749 5750 5750 5752 5752 5754 5758 5760 5760 5760 5760 5762 5763 5763 5765 5767 5768 5769 5769 5770 5771 5772 5774 5775 5776 5778 5779 5780 5781 5782 5784 5785
5704 5707 5709 5710 5711 5713 5715 5717 5719 5720 5722 5722 5723 5726 5729 5730 5731 5732 5734 5735 5735 5736 5737 5738 5740 5740 5741 5741 5741 5742 5742 5742 5744 5746 5746 5746 5745 5744 5745 5745 5746 5747 5746 5744 5744 5745 5745 5745 5745 5746 5746 5746 5745 5745 5746 5746 5747 5749 5749 5750 5752 5753 5753 5754 5756 5759 5760 5761 5762 5764 5765 5766 5767 5768 5769 5771 5772 5774 5775 5776 5777 5778 5779 5780 5781 5782
5702 5705 5706 5708 5710 5711 5713 5715 5716 5719 5721 5721 5722 5724 5727 5728 5729 5730 5731 5732 5732 5733 5734 5735 5736 5737 5737 5737 5737 5738 5739 5739 5741 5741 5742 5742 5741 5741 5741 5742 5743 5743 5743 5742 5741 5741 5741 5741 5742 5743 5744 5744 5744 5743 5743 5743 5744 5745 5746 5746 5745 5746 5748 5750 5753 5755 5757 5759 5760 5761 5762 5763 5764 5766 5767 5769 5770 5772 5773 5773 5774 5775 5777 5778 5779 5779
5699 5702 5704 5706 5709 5710 5711 5713 5714 5717 5719 5720 5721 5722 5724 5726 5727 5727 5728 5729 5729 5731 5732 5733 5733 5733 5734 5734 5735 5736 5737 5738 5738 5738 5738 5738 5738 5738 5738 5738 5739 5739 5739 5739 5739 5740 5739 5737 5738 5740 5741 5742 5742 5742 5741 5741 5742 5744 5744 5743 5742 5744 5748 5749 5750 5752 5754 5757 5759 5760 5761 5761 5762 5763 5765 5766 5767 5769 5770 5771 5772 5773 5774 5775 5776 5777
5696 5699 5701 5704 5707 5709 5709 5711 5713 5715 5718 5719 5720 5720 5721 5723 5724 5725 5726 5726 5727 5729 5729 5730 5730 5730 5731 5732 5733 5734 5734 5735 5735 5735 5736 5736 5736 5735 5734 5734 5734 5735 5735 5735 5737 5738 5738 5737 5738 5739 5739 5740 5740 5740 5739 5740 5741 5742 5742 5742 5743 5745 5746 5747 5748 5749 5752 5754 5757 5758 5759 5760 5760 5761 5762 5763 5764 5765 5767 5769 5770 5771 5772 5773 5774 5774
5692 5695 5699 5702 5705 5706 5707 5709 5711 5714 5716 5717 5717 5719 5720 5721 5721 5722 5722 5723 5725 5726 5726 5727 5727 5727 5728 5730 5731 5731 5732 5732 5733 5733 5733 5734 5734 5733 5731 5730 5730 5731 5733 5733 5734 5735 5736 5737 5738 5738 5738 5739 5739 5738 5737 5738 5739 5740 5740 5741 5742 5743 5744 5745 5747 5750 5752 5753 5754 5755 5757 5758 5759 5759 5760 5761 5761 5762 5763 5766 5767 5768 5769 5770 5771 5772
5689 5691 5695 5699 5701 5702 5705 5708 5711 5713 5713 5711 5712 5715 5717 5716 5717 5718 5719 5721 5723 5723 5724 5724 5724 5724 5725 5727 5728 5729 5730 5730 5731 5731 5731 5731 5731 5731 5729 5728 5728 5729 5730 5731 5732 5732 5732 5733 5734 5735 5735 5736 5736 5736 5735 5736 5737 5737 5738 5739 5740 5741 5742 5744 5746 5749 5751 5751 5751 5752 5753 5754 5756 5757 5758 5759 5760 5760 5761 5763 5764 5766 5767 5768 5769 5770
5686 5687 5691 5695 5698 5700 5703 5706 5708 5708 5706 5706 5708 5710 5711 5712 5713 5714 5716 5718 5719 5720 5720 5721 5721 5721 5722 5724 5726 5727 5727 5728 5729 5729 5728 5728 5729 5730 5729 5728 5728 5728 5729 5730 5730 5730 5730 5729 5730 5731 5731 5731 5732 5733 5733 5733 5734 5735 5736 5737 5739 5741 5741 5742 5744 5745 5746 5746 5747 5748 5749 5751 5752 5754 5756 5757 5758 5759 5759 5760 5761 5763 5765 5766 5767 5767
5684 5686 5689 5693 5695 5698 5699 5700 5701 5701 5701 5702 5704 5706 5707 5709 5711 5712 5713 5715 5716 5716 5717 5718 5719 5718 5719 5721 5723 5724 5725 5726 5727 5727 5727 5727 5727 5729 5729 5729 5728 5727 5727 5727 5728 5728 5728 5727 5727 5728 5728 5729 5730 5731 5731 5731 5731 5732 5734 5736 5738 5740 5740 5741 5741 5741 5741 5741 5742 5744 5747 5748 5749 5750 5753 5754 5756 5756 5756 5757 5758 5760 5761 5763 5764 5764
5684 5685 5687 5690 5692 5694 5696 5696 5696 5697 5698 5700 5701 5702 5704 5706 5708 5709 5710 5712 5714 5714 5714 5715 5716 5716 5717 5718 5720 5723 5723 5723 5724 5725 5725 5725 5725 5726 5727 5727 5727 5726 5725 5725 5725 5726 5726 5726 5726 5726 5726 5727 5727 5729 5730 5730 5731 5732 5733 5735 5736 5737 5738 5739 5739 5738 5737 5738 5739 5742 5744 5745 5746 5748 5749 5751 5752 5752 5753 5753 5755 5757 5758 5759 5760 5761
5682 5683 5685 5687 5689 5691 5692 5693 5693 5694 5695 5696 5698 5700 5702 5703 5705 5707 5708 5709 5711 5711 5712 5713 5714 5714 5715 5716 5718 5721 5722 5722 5723 5723 5723 5724 5724 5724 5724 5724 5725 5725 5724 5723 5723 5724 5724 5724 5724 5725 5725 5725 5725 5726 5727 5729 5731 5732 5732 5734 5735 5735 5735 5736 5736 5735 5735 5736 5737 5738 5740 5742 5744 5745 5745 5746 5748 5749 5749 5750 5751 5753 5754 5755 5757 5758
5680 5681 5682 5684 5686 5688 5690 5691 5691 5692 5692 5694 5696 5698 5700 5701 5703 5705 5706 5707 5708 5709 5709 5711 5712 5713 5714 5715 5717 5718 5720 5721 5722 5722 5722 5723 5722 5722 5721 5722 5722 5722 5722 5722 5722 5722 5722 5722 5723 5723 5724 5724 5724 5724 5725 5727 5728 5730 5730 5731 5733 5733 5733 5732 5732 5732 5733 5734 5734 5735 5737 5739 5741 5742 5742 5742 5744 5745 5745 5747 5748 5749 5750 5752 5753 5754
5677 5678 5680 5682 5684 5686 5687 5688 5689 5689 5690 5692 5694 5696 5698 5700 5701 5703 5704 5704 5706 5707 5707 5708 5710 5711 5712 5713 5714 5715 5717 5718 5719 5720 5721 5721 5721 5720 5720 5720 5720 5720 5720 5720 5720 5720 5720 5720 5721 5721 5722 5722 5723 5723 5724 5725 5726 5727 5728 5728 5730 5730 5730 5729 5728 5728 5729 5730 5731 5731 5733 5735 5737 5738 5738 5739 5740 5742 5742 5743 5744 5745 5747 5749 5750 5751
5673 5675 5677 5680 5682 5682 5684 5685 5685 5686 5688 5690 5691 5693 5696 5697 5699 5701 5702 5702 5704 5705 5705 5706 5708 5709 5710 5711 5712 5713 5714 5715 5716 5718 5718 5718 5718 5719 5718 5718 5718 5718 5718 5718 5718 5718 5718 5718 5718 5718 5719 5719 5720 5721 5722 5723 5723 5725 5725 5725 5726 5726 5726 5726 5725 5725 5726 5727 5727 5728 5729 5730 5732 5733 5734 5736 5737 5739 5739 5740 5741 5742 5744 5745 5747 5748
5670 5672 5674 5677 5678 5679 5680 5681 5682 5684 5686 5688 5689 5690 5693 5695 5697 5698 5699 5700 5702 5702 5703 5703 5705 5706 5707 5708 5709 5710 5712 5713 5714 5715 5716 5716 5716 5716 5716 5716 5716 5716 5716 5716 5716 5716 5716 5715 5716 5716 5716 5716 5717 5718 5719 5720 5721 5722 5723 5723 5722 5722 5722 5722 5722 5722 5722 5723 5724 5724 5725 5727 5728 5729 5730 5733 5734 5735 5735 5736 5738 5739 5741 5742 5743 5744
5667 5668 5671 5673 5674 5675 5677 5678 5679 5681 5683 5685 5686 5688 5690 5692 5694 5695 5696 5698 5699 5700 5701 5701 5702 5703 5704 5705 5706 5707 5709 5711 5712 5712 5713 5713 5714 5714 5714 5714 5715 5715 5715 5714 5714 5714 5714 5713 5714 5714 5714 5714 5714 5715 5716 5717 5718 5718 5719 5719 5719 5718 5718 5718 5718 5718 5719 5719 5720 5720 5721 5722 5724 5726 5727 5728 5730 5731 5731 5732 5735 5736 5737 5738 5739 5741
5664 5666 5668 5670 5670 5672 5674 5675 5676 5678 5679 5681 5683 5685 5687 5689 5691 5691 5692 5693 5695 5696 5698 5698 5699 5701 5701 5702 5703 5704 5705 5707 5708 5709 5710 5710 5711 5712 5712 5712 5712 5713 5713 5713 5712 5712 5712 5711 5711 5712 5712 5712 5712 5712 5713 5714 5714 5715 5715 5715 5715 5715 5714 5714 5714 5715 5716 5716 5715 5715 5717 5718 5719 5721 5723 5724 5726 5728 5729 5730 5732 5733 5734 5734 5735 5738
5661 5663 5665 5667 5668 5669 5671 5672 5674 5675 5676 5678 5679 5681 5684 5686 5687 5687 5688 5689 5691 5692 5694 5695 5696 5698 5699 5699 5700 5701 5702 5703 5704 5705 5706 5707 5708 5709 5710 5710 5710 5710 5710 5710 5710 5710 5710 5709 5709 5709 5710 5710 5710 5710 5711 5711 5711 5711 5711 5712 5712 5711 5711 5711 5711 5711 5712 5713 5712 5711 5712 5714 5715 5717 5719 5721 5723 5725 5726 5727 5728 5730 5730 5731 5732 5735
5660 5661 5662 5664 5666 5667 5668 5669 5671 5672 5674 5675 5676 5678 5681 5683 5684 5684 5685 5686 5688 5689 5690 5691 5693 5694 5695 5695 5696 5698 5699 5699 5701 5702 5703 5704 5705 5706 5706 5707 5707 5708 5708 5708 5708 5708 5708 5707 5707 5707 5707 5708 5708 5708 5708 5709 5709 5708 5708 5708 5708 5708 5707 5707 5708 5708 5709 5710 5710 5709 5709 5710 5712 5715 5717 5718 5720 5722 5723 5724 5725 5726 5727 5728 5730 5732
5658 5659 5660 5662 5664 5664 5665 5667 5668 5669 5671 5672 5674 5675 5678 5680 5681 5682 5683 5684 5685 5686 5687 5688 5689 5690 5691 5692 5693 5695 5696 5697 5698 5699 5700 5700 5701 5702 5703 5704 5704 5705 5705 5705 5705 5705 5705 5705 5705 5705 5705 5705 5705 5705 5706 5706 5706 5706 5705 5705 5705 5705 5704 5704 5704 5705 5705 5706 5707 5708 5708 5708 5710 5712 5714 5716 5717 5718 5719 5721 5722 5723 5723 5725 5727 5729
5656 5657 5658 5659 5661 5662 5663 5664 5666 5667 5668 5669 5671 5672 5674 5676 5678 5679 5680 5681 5683 5683 5684 5685 5686 5687 5688 5689 5690 5691 5693 5694 5695 5696 5697 5697 5698 5699 5699 5700 5701 5701 5701 5702 5702 5702 5702 5703 5703 5702 5702 5702 5703 5703 5703 5703 5704 5703 5703 5702 5702 5702 5702 5701 5701 5701 5702 5703 5704 5705 5706 5706 5708 5709 5711 5713 5715 5715 5717 5718 5719 5719 5720 5722 5724 5726
5652 5654 5655 5656 5657 5659 5660 5662 5663 5664 5665 5666 5668 5669 5671 5673 5675 5676 5677 5678 5679 5680 5681 5682 5683 5684 5685 5686 5686 5687 5689 5690 5692 5693 5693 5694 5695 5696 5696 5697 5697 5698 5698 5698 5699 5699 5699 5700 5700 5699 5699 5699 5700 5700 5700 5701 5701 5701 5700 5699 5699 5700 5699 5698 5698 5699 5699 5700 5701 5702 5703 5704 5705 5707 5708 5710 5711 5712 5713 5714 5716 5717 5717 5719 5720 5722
5649 5651 5652 5653 5654 5656 5657 5659 5660 5662 5663 5664 5666 5667 5668 5670 5671 5672 5674 5675 5676 5677 5678 5679 5680 5681 5682 5683 5683 5684 5685 5686 5688 5689 5690 5691 5692 5692 5693 5693 5694 5694 5695 5695 5696 5696 5696 5696 5696 5696 5696 5696 5696 5697 5697 5698 5698 5698 5698 5697 5697 5697 5696 5696 5696 5696 5696 5697 5698 5700 5701 5702 5703 5704 5705 5706 5708 5709 5710 5712 5713 5714 5715 5716 5718 5719
5646 5648 5649 5650 5652 5653 5654 5656 5658 5659 5660 5662 5663 5664 5665 5667 5668 5669 5670 5671 5672 5673 5674 5675 5676 5677 5678 5679 5680 5681 5681 5682 5683 5685 5686 5687 5688 5689 5689 5690 5690 5691 5691 5691 5692 5692 5692 5692 5692 5693 5693 5693 5693 5693 5694 5694 5695 5695 5695 5695 5695 5694 5694 5694 5694 5693 5693 5693 5695 5696 5697 5699 5700 5701 5701 5703 5704 5706 5707 5709 5710 5711 5712 5713 5714 5716
5644 5645 5646 5647 5649 5651 5652 5654 5656 5657 5658 5659 5661 5661 5662 5664 5665 5666 5667 5668 5669 5670 5671 5672 5672 5673 5674 5676 5677 5677 5678 5679 5679 5680 5681 5682 5683 5684 5685 5685 5686 5686 5687 5687 5687 5688 5688 5688 5688 5689 5689 5690 5689 5690 5690 5691 5691 5692 5692 5693 5693 5692 5692 5691 5691 5691 5691 5691 5691 5692 5694 5695 5697 5698 5698 5699 5700 5702 5704 5705 5707 5708 5709 5710 5711 5712
5641 5643 5644 5645 5647 5649 5651 5652 5653 5655 5656 5658 5659 5659 5660 5661 5662 5663 5664 5665 5667 5668 5668 5669 5670 5670 5671 5672 5673 5673 5674 5675 5675 5676 5676 5677 5678 5679 5680 5681 5681 5682 5683 5683 5683 5683 5684 5684 5684 5685 5685 5686 5686 5686 5686 5687 5688 5689 5689 5689 5689 5690 5690 5689 5689 5689 5690 5690 5690 5690 5692 5693 5695 5696 5696 5696 5697 5698 5700 5702 5703 5705 5707 5707 5708 5709
5639 5641 5642 5644 5645 5647 5648 5649 5651 5652 5654 5656 5657 5658 5659 5660 5660 5661 5662 5663 5664 5665 5666 5666 5667 5668 5669 5669 5670 5670 5671 5671 5671 5672 5672 5673 5674 5674 5675 5676 5677 5678 5678 5679 5679 5679 5679 5680 5680 5680 5681 5682 5682 5683 5683 5683 5684 5685 5685 5685 5686 5687 5687 5687 5687 5687 5688 5688 5688 5689 5690 5691 5692 5693 5694 5694 5695 5696 5697 5699 5700 5701 5703 5703 5704 5706
5637 5639 5640 5641 5643 5644 5646 5647 5649 5650 5652 5654 5655 5656 5657 5658 5659 5659 5660 5661 5662 5663 5664 5664 5665 5666 5666 5667 5667 5668 5668 5668 5668 5669 5669 5669 5670 5670 5671 5672 5673 5674 5674 5675 5675 5675 5676 5676 5676 5676 5676 5677 5678 5679 5679 5679 5680 5681 5682 5682 5682 5683 5683 5684 5684 5685 5685 5686 5687 5687 5688 5688 5689 5690 5691 5692 5693 5694 5695 5696 5696 5697 5698 5699 5700 5701
5635 5636 5638 5639 5640 5642 5643 5645 5646 5648 5650 5652 5653 5654 5655 5656 5657 5658 5659 5660 5660 5661 5662 5662 5663 5663 5664 5664 5665 5665 5665 5666 5666 5666 5666 5666 5666 5667 5667 5668 5669 5670 5670 5671 5671 5671 5671 5671 5672 5672 5672 5673 5674 5674 5675 5675 5676 5677 5678 5679 5679 5679 5680 5680 5680 5681 5682 5683 5684 5684 5685 5686 5686 5687 5688 5689 5690 5691 5691 5692 5692 5693 5694 5695 5696 5697
5633 5635 5636 5637 5638 5639 5640 5642 5644 5646 5649 5650 5651 5652 5652 5653 5655 5656 5658 5658 5659 5659 5660 5660 5661 5661 5661 5662 5662 5663 5663 5663 5663 5663 5663 5663 5664 5664 5664 5665 5665 5666 5666 5667 5667 5667 5667 5667 5667 5668 5668 5668 5669 5670 5671 5671 5672 5672 5673 5674 5675 5676 5676 5676 5677 5677 5678 5679 5680 5681 5681 5682 5683 5684 5684 5685 5686 5687 5688 5689 5690 5691 5691 5692 5693 5693
5632 5633 5634 5635 5636 5637 5638 5640 5642 5645 5647 5649 5649 5649 5650 5652 5653 5655 5656 5656 5657 5657 5658 5658 5658 5659 5659 5659 5659 5660 5660 5660 5660 5660 5660 5661 5661 5661 5661 5662 5662 5662 5662 5663 5663 5663 5663 5663 5663 5663 5663 5663 5664 5665 5666 5667 5668 5668 5669 5670 5671 5671 5672 5672 5673 5674 5674 5675 5676 5677 5678 5678 5679 5680 5681 5682 5683 5684 5685 5687 5687 5688 5689 5689 5689 5690
5630 5631 5632 5634 5635 5637 5638 5639 5641 5643 5645 5647 5647 5648 5649 5651 5652 5653 5654 5655 5655 5655 5656 5656 5656 5656 5657 5657 5657 5657 5657 5657 5657 5657 5657 5658 5658 5658 5658 5658 5658 5659 5659 5659 5659 5659 5658 5659 5659 5659 5659 5659 5659 5660 5661 5662 5663 5664 5665 5665 5666 5667 5668 5669 5669 5670 5671 5671 5672 5673 5674 5675 5676 5677 5678 5680 5681 5682 5682 5684 5685 5685 5686 5686 5687 5688
5629 5630 5632 5633 5635 5637 5637 5639 5641 5643 5644 5645 5646 5647 5649 5650 5652 5653 5653 5654 5654 5654 5654 5654 5654 5654 5654 5654 5654 5654 5654 5654 5654 5654 5654 5654 5654 5654 5655 5655 5655 5655 5655 5655 5655 5655 5655 5655 5654 5655 5655 5655 5655 5655 5656 5657 5658 5659 5660 5661 5662 5663 5664 5665 5666 5667 5667 5668 5669 5669 5670 5672 5673 5674 5675 5676 5678 5679 5679 5680 5681 5681 5682 5683 5684 5684
5628 5630 5632 5634 5636 5637 5638 5639 5641 5642 5644 5645 5646 5647 5649 5650 5651 5651 5652 5652 5652 5652 5652 5652 5652 5652 5652 5651 5651 5651 5651 5651 5651 5651 5651 5650 5650 5650 5650 5651 5650 5650 5650 5650 5650 5650 5651 5651 5650 5651 5651 5651 5651 5651 5652 5653 5654 5655 5656 5657 5658 5660 5661 5661 5662 5663 5664 5665 5666 5666 5667 5668 5670 5671 5672 5673 5674 5675 5675 5676 5676 5676 5677 5678 5679 5680
5629 5631 5633 5635 5637 5638 5639 5640 5641 5642 5644 5645 5646 5647 5648 5649 5650 5650 5650 5650 5651 5651 5651 5650 5650 5650 5649 5648 5648 5647 5647 5646 5646 5647 5646 5646 5646 5646 5646 5646 5646 5645 5645 5645 5645 5646 5646 5646 5646 5646 5646 5646 5647 5647 5648 5649 5650 5651 5652 5653 5655 5655 5656 5657 5657 5659 5660 5661 5662 5662 5663 5664 5665 5666 5668 5669 5669 5669 5670 5671 5671 5672 5672 5673 5674 5675
5632 5633 5635 5636 5638 5640 5640 5641 5642 5643 5644 5645 5646 5647 5648 5648 5649 5649 5649 5649 5649 5649 5649 5648 5647 5647 5646 5645 5644 5643 5642 5641 5641 5642 5641 5641 5641 5641 5641 5641 5640 5640 5640 5640 5640 5640 5640 5641 5641 5641 5641 5642 5642 5643 5643 5644 5645 5646 5648 5649 5650 5651 5651 5652 5652 5653 5655 5656 5657 5658 5658 5659 5660 5661 5662 5663 5664 5665 5666 5666 5667 5667 5667 5668 5668 5669